Theta_e
333 335 335 335 334 330 330 330 331 331 334 336 336 337 338 340 351 350 347 346 346 345 341 340 339 337 336 337 335 335 334 334 334 333 332 330 330 329 328 323 324 325 323 322
334 333 332 332 330 329 329 330 331 332 332 337 336 336 337 338 341 343 346 347 346 344 341 339 337 337 336 336 335 335 336 336 336 335 334 334 331 325 322 322 321 322 323 320
335 334 331 332 332 331 330 332 330 330 330 336 337 345 340 335 345 344 345 345 346 345 342 340 337 336 335 335 335 336 337 337 338 336 335 333 331 328 325 321 319 321 320 320
335 332 332 332 332 331 331 330 329 330 331 335 339 342 342 341 343 344 345 346 346 345 343 342 340 338 336 336 335 337 337 338 338 337 333 329 324 320 319 319 318 321 320 320
332 333 332 333 332 332 331 331 330 331 332 339 339 342 343 340 344 346 340 338 341 343 343 342 338 338 338 337 335 327 337 336 336 336 330 320 322 319 318 318 319 320 321 321
330 330 331 331 331 329 330 330 330 332 339 344 342 342 342 342 338 335 333 335 338 340 344 342 338 340 342 336 334 335 333 337 332 327 324 324 324 323 323 322 321 319 320 318
329 329 329 330 329 329 329 336 343 344 339 339 339 339 342 336 334 333 333 333 338 341 343 343 342 343 340 339 338 334 334 331 325 322 323 324 324 326 327 325 323 320 319 318
330 334 331 330 330 330 333 341 343 340 345 338 331 341 343 334 333 333 334 334 336 338 338 338 338 337 335 332 329 328 327 323 321 322 324 325 325 324 322 321 323 323 319 317
334 334 330 331 331 330 331 342 339 336 333 336 337 338 335 335 333 332 334 336 336 336 336 336 335 333 330 328 328 326 322 317 315 317 325 324 323 323 322 321 321 319 318 317
334 333 331 332 334 331 332 334 335 333 337 339 339 337 339 335 334 334 333 335 336 335 334 334 334 332 329 326 323 322 320 318 320 322 321 321 321 320 319 317 316 315 315 314
335 335 334 333 335 336 336 336 338 342 337 340 342 340 334 335 334 335 333 333 334 334 334 331 329 328 325 321 320 320 321 320 320 320 320 320 319 317 315 314 314 313 313 312
338 340 338 333 337 336 333 335 336 337 337 340 340 338 334 333 333 333 331 333 334 333 332 328 326 322 323 320 320 319 320 320 320 319 317 315 314 313 313 312 312 311 311 311
342 340 340 337 341 339 335 332 334 336 338 339 343 343 334 331 331 330 329 329 330 329 327 325 324 322 320 321 320 320 320 319 316 315 313 312 312 311 311 310 310 310 310 310
339 344 343 340 339 336 337 335 333 334 337 337 338 339 333 330 329 328 328 327 327 326 326 325 324 322 320 320 320 319 317 315 313 312 311 311 310 310 310 308 308 307 308 309
337 344 337 336 335 333 335 334 332 333 334 336 335 334 331 328 325 325 325 325 325 325 323 322 321 320 319 319 318 315 314 313 312 311 310 310 309 310 308 308 307 307 307 308
342 344 339 339 335 334 334 333 332 333 333 332 330 332 328 325 323 322 321 321 321 321 320 320 319 318 318 316 315 314 313 312 311 310 310 309 309 308 308 308 308 307 308 308
343 344 343 340 340 337 334 336 334 333 332 331 332 331 327 323 322 321 320 320 320 320 319 318 318 318 317 315 314 313 312 311 311 310 310 309 308 308 309 308 307 307 307 308
343 344 344 337 338 339 339 335 334 332 332 330 329 327 323 322 320 320 321 319 319 319 319 319 317 315 314 314 313 312 312 311 311 310 310 309 309 309 309 307 306 306 306 307
343 343 343 346 335 337 338 336 334 333 335 331 329 326 322 321 320 323 321 320 319 319 318 318 316 314 314 314 313 312 312 312 312 311 310 310 309 309 308 306 306 306 306 307
342 344 343 337 340 334 339 337 333 332 336 330 326 322 321 320 322 325 321 319 319 318 317 317 315 314 314 314 314 313 312 312 313 311 310 311 310 309 307 306 305 306 308 309
345 346 340 336 340 337 337 333 331 337 339 327 323 322 322 322 322 321 319 318 317 317 316 316 315 314 314 314 314 314 313 313 312 311 310 311 310 308 306 306 306 307 309 310
338 341 338 343 334 335 333 332 334 335 329 325 324 322 321 321 321 320 318 318 317 317 316 315 315 314 314 313 314 313 313 313 313 311 311 311 310 308 306 306 306 306 308 310
341 343 343 342 342 338 333 333 331 327 327 325 324 322 321 321 320 318 318 319 318 318 317 316 315 314 314 314 314 314 313 313 313 311 311 312 310 309 307 307 307 307 307 308
341 336 334 337 337 335 331 327 325 325 325 324 322 321 320 319 318 318 319 320 319 318 318 317 316 315 314 313 313 313 313 313 313 311 311 311 310 308 308 308 308 308 308 308
336 333 332 334 331 329 327 325 323 322 322 322 321 320 318 318 318 319 320 320 319 318 318 318 317 317 315 314 314 313 313 313 313 312 312 310 309 309 308 309 309 308 307 306
330 335 333 334 329 328 327 323 321 320 320 320 320 320 320 319 319 319 320 319 319 319 318 318 318 318 316 314 312 312 312 313 313 312 312 312 309 309 309 308 309 307 306 306
Wind_Speed
15 12 14 8 16 13 9 10 13 10 4 4 13 15 12 6 11 9 11 12 12 14 15 20 19 18 18 19 17 16 15 13 12 11 11 13 13 14 10 10 6 8 12 15
14 13 18 2 8 9 10 17 12 13 7 8 15 18 14 15 8 11 11 12 12 13 13 15 17 19 19 17 13 14 14 14 14 12 10 8 8 10 12 12 8 9 6 12
9 22 4 18 17 15 11 15 13 17 14 12 18 14 21 8 7 6 6 9 11 11 14 13 17 19 18 18 18 20 16 18 14 11 8 8 11 13 11 6 6 2 8 10
18 24 17 12 17 13 17 8 16 17 16 14 12 14 20 18 13 23 11 5 8 11 11 10 12 16 17 16 17 12 19 19 12 10 8 5 10 11 10 12 12 6 13 12
17 19 24 18 14 24 17 17 13 17 18 24 12 4 5 25 8 11 7 9 5 7 9 10 11 18 25 16 13 14 15 1 4 8 7 6 11 10 12 13 13 12 16 12
22 19 9 16 21 13 19 15 18 22 4 5 12 2 6 10 12 13 13 11 9 5 7 6 13 2 7 8 8 19 10 8 11 6 6 10 11 12 14 15 15 21 12 20
21 18 20 17 17 15 22 13 10 19 11 6 4 11 8 14 12 12 12 11 6 5 6 10 12 9 6 8 11 18 15 11 4 6 6 13 13 13 13 19 20 20 19 21
14 18 23 13 19 19 3 13 10 10 7 18 12 1 1 8 10 9 8 8 4 2 5 2 3 6 6 15 9 12 11 5 14 5 7 11 13 15 16 16 13 16 20 22
18 25 12 18 18 10 13 4 24 10 16 14 5 7 17 3 7 12 10 7 9 4 4 6 8 5 20 15 16 10 10 6 13 14 9 9 12 12 13 14 15 19 19 22
16 20 17 7 15 12 11 16 12 8 10 15 7 8 5 10 10 12 12 6 7 8 5 4 10 22 16 13 7 6 8 14 13 10 10 10 10 11 14 16 18 21 22 23
12 12 16 4 9 6 3 11 4 9 4 7 9 1 7 9 11 13 13 11 6 4 7 14 14 8 8 5 4 8 5 9 6 9 10 11 13 14 17 20 22 24 23 23
3 5 12 11 26 28 12 10 10 7 9 7 13 3 8 9 11 11 12 12 11 9 11 8 8 7 5 9 4 6 8 7 8 10 14 16 17 18 20 21 23 23 24 23
11 6 9 14 7 12 10 16 8 6 7 10 5 2 5 9 10 10 11 9 8 7 6 7 4 5 3 9 7 6 7 11 13 14 17 17 17 18 19 20 22 22 22 22
4 9 11 13 14 0 7 8 6 3 7 6 1 12 8 10 11 9 8 6 6 4 4 4 4 2 6 2 8 9 11 12 14 15 15 16 16 17 17 21 23 25 24 24
1 13 14 14 6 7 2 4 4 7 4 8 5 6 10 9 9 9 7 6 7 5 4 5 8 7 9 9 9 10 11 12 12 14 14 15 17 14 20 21 22 24 25 25
5 9 10 15 3 8 4 2 4 6 3 9 4 9 5 5 6 7 6 6 3 2 6 7 6 9 10 11 8 9 10 11 12 13 16 18 17 19 18 20 23 26 24 22
6 7 6 12 9 16 6 5 4 3 4 5 7 8 5 7 6 5 5 4 4 5 5 6 7 7 8 9 7 10 11 11 12 14 17 18 20 21 21 25 26 27 23 22
6 8 11 10 9 11 2 3 4 5 3 1 2 3 6 5 6 1 4 6 6 6 6 7 9 10 9 8 8 8 11 11 13 16 19 20 21 21 21 25 24 24 23 22
6 7 8 6 4 8 10 4 2 6 6 4 2 3 5 5 10 6 1 3 5 7 7 7 8 7 7 7 7 8 11 13 16 17 19 21 23 18 21 20 23 23 23 21
12 11 7 5 10 7 6 6 2 4 8 6 1 5 5 7 9 9 5 6 5 8 8 6 9 9 7 8 7 9 12 14 16 19 21 18 16 17 19 18 21 20 21 19
13 3 9 4 5 5 7 3 1 7 3 1 4 4 4 5 5 6 4 5 7 7 7 8 9 9 7 8 9 11 12 15 17 19 20 14 11 18 13 17 17 19 18 17
3 4 1 2 6 1 2 4 4 5 2 3 4 5 4 5 5 4 3 3 4 6 7 8 9 8 8 9 9 12 13 14 15 16 16 10 11 14 16 15 15 18 16 16
2 5 3 2 6 5 2 4 3 2 5 5 3 6 4 7 6 4 3 4 4 6 6 7 9 9 10 10 10 12 13 14 13 15 16 10 14 9 13 13 12 14 15 17
1 2 1 2 5 3 2 1 2 5 7 5 4 3 5 7 5 5 5 4 7 8 9 9 9 10 11 11 12 13 14 14 12 13 14 13 14 7 9 14 11 13 12 14
5 3 3 3 4 3 4 1 5 6 4 5 5 4 5 6 6 7 8 6 9 11 11 10 11 12 13 13 13 13 12 13 10 11 13 13 12 10 11 9 9 8 8 8
4 8 4 5 5 3 5 2 1 5 4 5 7 6 8 9 9 11 9 12 12 13 14 13 12 13 14 13 12 12 12 11 9 10 12 11 11 11 10 10 11 6 4 4
Wind_Direction
202 238 239 104 240 306 323 311 293 299 156 265 280 273 272 217 201 243 250 250 229 223 206 191 200 201 200 205 204 207 209 210 217 229 237 241 250 247 264 300 338 330 309 308
284 228 264 288 288 296 292 279 318 282 268 269 268 270 279 279 259 222 226 231 237 221 215 192 195 200 204 204 202 215 223 216 212 219 237 271 301 301 301 292 289 282 283 309
243 283 142 290 295 276 249 309 308 311 298 252 265 320 266 307 177 208 209 236 224 231 218 192 197 206 209 199 201 218 212 220 208 216 218 239 255 250 248 224 284 132 323 301
216 238 287 222 263 278 280 282 289 295 286 274 192 286 345 312 34 4 180 199 240 234 218 186 190 197 206 209 211 225 220 210 190 206 232 248 306 295 302 298 278 303 286 270
275 220 257 351 311 288 286 294 296 288 283 350 353 17 236 252 132 189 86 11 243 231 183 203 166 219 197 163 184 240 253 92 206 190 259 280 242 290 304 305 307 287 281 262
257 263 224 248 250 266 288 289 273 267 81 259 212 48 281 18 39 29 14 30 6 353 120 171 174 174 225 149 188 220 200 184 193 192 227 255 278 288 292 298 299 286 295 305
252 283 283 264 259 259 254 30 346 289 245 278 80 271 27 36 38 32 22 5 49 20 127 174 147 193 200 194 176 172 178 162 219 235 226 246 265 276 275 268 268 299 290 295
265 243 239 239 295 270 243 157 216 334 330 269 304 320 104 4 57 41 43 7 59 57 116 124 121 156 176 81 25 62 62 34 311 324 320 319 306 291 294 307 317 300 299 297
282 288 341 300 223 268 283 144 231 296 301 321 16 360 53 341 11 17 23 58 355 224 110 122 113 166 92 74 65 63 54 360 327 300 300 292 281 291 302 302 304 296 306 307
275 297 191 250 312 261 263 337 295 280 289 286 335 17 28 23 9 7 359 60 98 284 103 99 91 73 57 68 73 35 355 313 276 270 296 310 303 311 322 316 311 306 305 305
288 278 295 288 259 303 244 233 117 233 344 327 304 143 54 11 20 7 356 19 61 93 65 74 67 63 63 30 324 304 287 302 321 330 316 316 317 316 312 310 309 307 305 301
316 294 256 254 38 1 332 347 345 320 299 199 259 119 87 28 23 21 7 34 23 23 61 86 85 88 331 322 272 358 11 322 329 331 326 321 321 320 317 316 310 307 302 299
359 252 255 238 37 349 265 257 278 251 247 284 12 125 46 41 25 36 14 40 43 47 75 68 58 302 277 4 3 354 348 343 335 335 326 326 327 326 319 313 314 310 308 312
344 291 289 296 342 33 214 229 306 298 280 330 357 173 60 30 25 21 22 20 66 106 56 15 245 283 62 32 4 346 344 338 335 331 330 332 330 321 343 335 325 320 315 308
120 281 290 287 293 283 292 316 308 299 348 305 24 17 35 23 9 7 2 6 31 1 286 10 23 357 346 15 350 342 334 334 333 332 335 333 323 351 333 318 314 309 305 304
187 266 266 270 299 260 314 90 244 240 45 303 318 101 39 49 351 3 12 353 12 18 3 359 358 354 357 348 346 331 337 336 338 336 330 325 329 333 318 314 313 312 310 298
206 277 253 274 164 228 250 107 270 325 158 324 330 25 358 350 359 352 353 16 356 3 344 343 337 357 349 326 338 344 335 338 335 327 320 327 342 324 328 325 325 323 318 313
209 235 263 268 226 279 88 71 20 319 28 158 165 341 2 341 320 283 349 3 346 343 337 350 341 342 340 330 333 333 334 330 325 320 329 336 332 348 336 331 331 328 323 321
262 253 256 248 296 193 190 140 275 319 192 188 321 334 341 321 295 200 170 323 336 336 330 336 323 326 318 310 323 320 319 323 321 328 330 341 344 342 328 333 337 330 328 323
226 233 253 266 261 315 99 115 334 308 260 120 345 319 334 337 293 94 8 358 330 337 329 317 307 312 308 297 308 308 314 317 327 330 333 340 359 333 328 345 335 335 335 331
220 339 231 223 216 91 78 99 8 259 46 109 316 327 314 300 352 333 323 342 352 338 314 298 301 295 303 300 301 299 308 318 327 330 332 5 351 321 344 344 342 333 337 338
7 183 59 185 263 292 90 197 295 58 183 302 295 297 307 312 296 270 306 318 335 325 324 302 295 294 294 297 297 295 302 310 318 329 331 349 333 329 340 339 337 327 335 349
297 26 356 356 35 115 64 28 71 317 294 301 303 315 302 293 280 281 278 291 317 291 297 308 304 303 292 287 285 294 297 306 321 323 326 331 330 332 328 333 343 346 348 349
229 117 268 298 118 145 121 118 299 294 289 300 291 299 297 288 277 259 262 278 289 298 313 314 303 300 302 304 298 291 296 307 313 316 319 320 311 328 324 315 346 353 352 346
71 228 34 230 152 193 167 327 333 310 280 280 274 291 295 274 273 271 274 281 289 296 296 308 309 303 297 294 292 291 291 298 303 308 306 309 330 320 306 312 325 328 347 333
77 20 340 57 88 321 83 347 295 298 287 271 283 272 244 243 263 272 279 284 290 292 295 293 299 298 294 290 293 290 288 289 287 292 297 325 313 320 304 319 318 250 253 309